Inuvik Mike Zubko Airport
CYEV : now visible

Airfield :











YOU CAN JOIN US ON...

 
LOGIN :

Register | Disclaimer

   EN    FR    IT 

 









Legend :    VFR   Marginal VFR   IFR   Intensive IFR   Very Intensive IFR
Visi :
Ceiling :
>= 8 km
>= 3000ft
5 to 8 km
1000 to 3000 ft
1500m to 5 km
500 to 1000 ft
800 to 1500m
200 to 500 ft
< 800m
< 200 ft
Symbols :   Thunderstorms  Fog  Heavy snow  Heavy precipitations  Wind > 20 kt






- Airport Elevation : 224 ft
- IATA code : YEV


CYEV - Inuvik Mike Zubko

CURRENT METAR :
  • 240600Z 09007KT 15SM OVC049 M12/M15 A2955 RMK SC8 SLP017

EXPIRED METARs :
  • 240500Z 10008KT 15SM FEW049 SCT065 OVC090 M13/M15 A2955 RMK SC2SC2AC4 SLP015
  • 240400Z 06003KT 15SM -SN SCT064 BKN090 M13/M16 A2955 RMK SC3AC4 SLP016

TAF TAF CYEV
Valid from the 24 at 01:00 until the 24 at 13:00 UTC


240040Z 2401/2413 10007KT P6SM -SN BKN090
FM240200 10005KT P6SM FEW050 SCT100
TEMPO 2405/2408 BKN050 RMK NXT FCST BY 240700Z
CZEG FIR / North America



MET'MAP, your aeronautical weather chart ! - Copyright ORBIFLY December 2007 - Disclaimer

ORBIFLY MET'MAP TEAM :

Programming & Development : Alexandra Zaïnal
Concept & original design : Baudouin d'Aumeries
Assistance for programming : Marc-Olivier Méhu
Technical & hardware support : Manuel Goepfert

Contact : metmap@orbifly.com




SOURCES & CREDITS :

   NOAA       Earth
Advisory